EST,Max TemperatureF,Mean TemperatureF,Min TemperatureF,Max Dew PointF,MeanDew PointF,Min DewpointF,Max Humidity, Mean Humidity, Min Humidity, Max Sea Level PressureIn, Mean Sea Level PressureIn, Min Sea Level PressureIn, Max VisibilityMiles, Mean VisibilityMiles, Min VisibilityMiles, Max Wind SpeedMPH, Mean Wind SpeedMPH, Max Gust SpeedMPH,PrecipitationIn, CloudCover, Events, WindDirDegrees
2013-2-1,23,16,8,21,6,0,93,69,53,30.43,30.33,30.01,10,10,1,16,10,33,0.00,2,Snow,289
2013-2-2,32,22,12,32,22,10,100,86,73,30.34,30.14,30.01,10,7,0,14,6,21,0.00,7,Snow,243
2013-2-3,30,26,23,27,23,19,93,80,69,30.15,30.03,29.95,10,10,2,14,6,22,0.00,8,Snow,290
2013-2-4,44,28,12,39,26,10,100,80,52,30.14,29.98,29.86,10,10,7,16,6,24,0.00,6,Rain,240
2013-2-5,48,44,37,41,36,32,100,78,58,30.04,29.92,29.86,10,10,5,16,9,22,0.00,7,,278
2013-2-6,44,36,28,32,31,28,100,83,61,30.25,30.18,30.05,10,8,4,8,3,,0.00,3,,41
2013-2-7,62,48,33,37,33,30,87,62,36,30.20,30.05,29.89,10,10,7,13,6,17,0.00,2,,186
2013-2-8,46,40,33,45,34,28,100,86,66,30.32,30.08,29.84,10,10,7,16,8,25,0.00,7,Rain,316
2013-2-9,42,34,26,28,22,18,87,62,42,30.42,30.33,30.21,10,10,7,9,5,,0.00,2,,86
2013-2-10,55,44,33,45,30,19,93,61,33,30.22,30.07,29.88,10,10,10,18,8,26,0.00,5,Rain,176
2013-2-11,53,44,35,50,37,28,94,66,44,30.11,29.96,29.86,10,10,10,24,13,34,0.00,2,Rain,260
2013-2-12,50,40,30,30,28,25,93,68,40,30.18,30.08,29.90,10,10,10,12,4,,0.00,0,,255
2013-2-13,39,36,32,34,31,28,100,86,70,29.95,29.83,29.74,10,9,1,10,4,17,0.00,6,Rain-Snow,357
2013-2-14,53,42,30,36,32,30,100,76,44,29.99,29.95,29.89,10,9,5,22,9,30,0.00,3,,247
2013-2-15,41,34,28,36,31,23,100,86,70,30.15,30.08,30.00,10,10,3,13,5,20,0.00,6,Rain-Snow,312
2013-2-16,32,26,19,23,17,10,100,71,41,30.14,30.08,30.02,10,9,2,15,5,24,0.00,3,Snow,334
2013-2-17,33,25,17,18,12,9,93,60,35,30.26,30.19,30.12,10,10,7,12,4,,0.00,3,Snow,319
2013-2-18,59,41,23,34,24,10,68,49,38,30.23,30.07,29.83,10,10,10,21,10,30,0.00,2,Rain,202
2013-2-19,48,37,26,37,28,18,100,72,48,30.15,29.94,29.78,10,10,2,25,17,40,0.00,6,Rain-Snow,274
2013-2-20,32,26,21,19,16,12,74,63,51,30.28,30.23,30.15,10,10,10,13,8,24,0.00,2,,305
2013-2-21,37,27,17,28,18,14,93,68,48,30.34,30.22,30.08,10,10,5,18,7,24,0.00,2,Rain-Snow,87
2013-2-22,59,46,32,46,39,28,100,84,55,30.03,29.96,29.91,10,9,3,25,7,34,0.00,7,Rain-Snow,201
2013-2-23,44,38,32,39,32,27,93,77,57,30.01,29.96,29.90,10,10,4,10,3,,0.00,4,,310
2013-2-24,44,34,23,28,26,21,93,73,49,30.14,30.08,29.95,10,10,7,12,4,,0.00,0,,318
2013-2-25,48,37,26,25,23,21,80,59,37,30.15,30.05,29.87,10,10,10,15,10,21,0.00,0,,100
2013-2-26,57,48,39,50,38,23,94,76,52,29.85,29.57,29.39,10,10,3,18,12,30,0.00,8,Rain,164
2013-2-27,39,36,32,36,33,32,100,90,75,29.80,29.72,29.61,10,8,1,21,13,30,0.00,8,Rain-Snow,261
2013-2-28,33,32,32,34,31,28,100,94,87,29.96,29.85,29.76,10,8,2,16,11,26,0.00,8,Rain-Snow,283